User: anonymous   Login
Location: Unspecified
(0.0000°N, 0.0000°E)
Time: 10:39:43
(UTC+02:00)
Language:

Milstar 3 - Orbit

View from above orbital plane
View from above orbital plane
View from above satellite
View from above satellite

Ground track
Ground track

The orbit data is extracted from the following two-line orbital elements,

1 25724U 99023A   17115.08558211 0.00000040  00000-0  50318-3 0    05
2 25724  28.2236  53.3927 2132299 115.6769 244.3226  9.37471062    09
Epoch (UTC): 25 April 2017 02:03:14
Eccentricity: 0.2132299
inclination: 28.2236°
perigee height: 1097 km
apogee height: 5148 km
right ascension of ascending node: 53.3927°
argument of perigee: 115.6769°
revolutions per day: 9.37471062
mean anomaly at epoch: 244.3226°
orbit number at epoch: 0

The dashed part of the orbit path shows where the satellite is in the earth's shadow,  

DLR